Overview Statistics Trail Chart Weather Telemetry Raw packets
 

This is the latest recevied weather packets stored in our database for station/object K2CAT. If no packets are shown the sender has not sent any weather packets the latest 10 day(s).

<< 68 69 70 71 72 73 74 >>
Time Temp. Humidity Pressure Rain* Wind** Luminosity Snow
1777234634 18.33° C 46% 1018.8 hPa 0 mm - 425 W/m² -
1777234329 18.89° C 46% 1019 hPa 0 mm - 439 W/m² -
1777234025 18.89° C 53% 1018.8 hPa 0 mm - 452 W/m² -
1777233722 18.33° C 44% 1019 hPa 0 mm - 463 W/m² -
1777233417 18.89° C 46% 1018.9 hPa 0 mm - 475 W/m² -
1777233116 18.89° C 46% 1018.9 hPa 0 mm - 487 W/m² -
1777232813 19.44° C 48% 1018.8 hPa 0 mm - 499 W/m² -
1777232512 18.89° C 46% 1019.1 hPa 0 mm - 511 W/m² -
1777232210 18.89° C 45% 1019.1 hPa 0 mm - 524 W/m² -
1777231905 18.33° C 46% 1019.2 hPa 0 mm - 534 W/m² -
1777231603 18.33° C 49% 1019.1 hPa 0 mm - 541 W/m² -
1777231299 18.33° C 48% 1019.3 hPa 0 mm - 550 W/m² -
1777230994 18.33° C 51% 1019.2 hPa 0 mm - 562 W/m² -
1777230691 17.78° C 50% 1019 hPa 0 mm - 571 W/m² -
1777230386 17.78° C 47% 1019.3 hPa 0 mm - 581 W/m² -
1777230083 17.22° C 50% 1019.4 hPa 0 mm - 588 W/m² -
1777229780 17.78° C 50% 1019.2 hPa 0 mm - 597 W/m² -
1777229477 17.78° C 48% 1019.4 hPa 0 mm - 605 W/m² -
1777229173 17.78° C 48% 1019.3 hPa 0 mm - 615 W/m² -
1777228871 18.33° C 51% 1019.3 hPa 0 mm - 621 W/m² -
1777228566 17.78° C 53% 1019.5 hPa 0 mm - 629 W/m² -
1777228263 17.78° C 48% 1019.4 hPa 0 mm - 633 W/m² -
1777227962 17.78° C 48% 1019.6 hPa 0 mm - 646 W/m² -
1777227657 17.22° C 46% 1019.6 hPa 0 mm - 652 W/m² -
1777227353 17.78° C 50% 1019.6 hPa 0 mm - 659 W/m² -

* Rain latest hour (hover to see other rain measurements)
** Current wind speed in m/s (hover to see current wind gust speed)